Voltar ao catálogo

USA 324

AtivoNavegaçãoGEO
NORAD 51280·PAYLOAD·🇺🇸 United States

Lançado Jan 21, 2022 de Cape Canaveral Space Force Station

Loading…

TLE

ObsoletoSource: Space-Track

Época: Jun 6, 2026, 02:06 UTC

1 51280U 22006A   26157.08795008 -.00000058  00000-0  00000+0 0  9997
2 51280   0.7690  83.2777 0002840 165.6787 110.1567  1.00289779 16021

Acompanhe USA 324 em tempo real com AllMySat

Download on the App Store